Simultaneous Nadir Overpasses (SNOs) Predictions

Prediction of SNOs between GOES-17 and LANDSAT-8 Satellite Orbit:

Table of predicted SNOs for the next 14.0 days since TLE Epoch: 8/15/2025
Index Date Time (GOES-17) GOES-17 Lat,Lon LANDSAT-8 Lat,Lon Distance(km) Time Diff (sec)
1 08/17/2025 03:53:06 -0.05, -89.47 0.74, -85.63 436.84 80
2 08/17/2025 16:17:02 0.07, -89.52 0.33, -90.79 144.48 80
3 08/19/2025 16:02:11 0.07, -89.52 -0.30, -87.83 191.98 80
4 08/20/2025 04:26:15 -0.09, -89.48 -0.82, -93.02 402.43 80
5 08/22/2025 04:14:03 -0.08, -89.49 -0.23, -90.05 65.05 80
6 08/24/2025 03:59:12 -0.08, -89.50 0.42, -87.10 273.34 80
7 08/24/2025 16:23:07 0.09, -89.55 0.65, -92.26 306.99 80
8 08/26/2025 16:08:16 0.09, -89.58 0.04, -89.29 32.13 80
9 08/28/2025 15:56:05 0.09, -89.60 -0.63, -86.34 371.58 80
10 08/29/2025 04:20:07 -0.11, -89.57 -0.53, -91.52 222.33 80
